PERSEUS-M1

Last updated on Thu Jul 03 2025 00:03:45 GMT+0000 (Coordinated Universal Time)

1 40039U 14033AF 25183.53278991 .00001088 00000+0 10809-3 0 9997 2 40039 97.9294 118.2513 0012664 23.7120 336.4680 14.93789812598401
UTC large
Height (km)
Speed (km/s)
/
Latitude / Longitude
Inclination (degrees)
Orbital Period (minutes)
Azimuth
Elevation
Range (km)
Doppler Factor

Next 0 passes for location: London (51.5072 / 0.1276)

Sorry there are no passes over London.